| time (UTC) | temp F | wind direction | speed MPH | gust MPH | rain 1hr in | rain 24hr in | rain mn in | humidity % | barometer mb |
| 20260508051533 | 53 | 315 | 0.0 | 0.0 | 0.00 | 0.01 | 0.00 | 86 | 1014.8 |
| 20260508050038 | 53 | 315 | 0.0 | 0.0 | 0.00 | 0.01 | 0.00 | 86 | 1014.8 |
| 20260508044549 | 53 | 315 | 0.0 | 0.0 | 0.00 | 0.01 | 0.01 | 85 | 1014.8 |
| 20260508043058 | 53 | 315 | 0.0 | 0.0 | 0.00 | 0.01 | 0.01 | 85 | 1014.9 |
| 20260508041506 | 54 | 315 | 0.0 | 0.0 | 0.00 | 0.01 | 0.01 | 83 | 1014.9 |
| 20260508040019 | 54 | 315 | 0.0 | 0.0 | 0.00 | 0.01 | 0.01 | 80 | 1014.9 |
| 20260508034533 | 55 | 315 | 0.0 | 0.0 | 0.00 | 0.01 | 0.01 | 75 | 1014.8 |
| 20260508033047 | 55 | 315 | 0.0 | 0.0 | 0.00 | 0.01 | 0.01 | 75 | 1014.7 |
| 20260508031559 | 56 | 315 | 0.0 | 0.0 | 0.00 | 0.01 | 0.01 | 74 | 1015.0 |
| 20260508030010 | 57 | 315 | 0.0 | 0.0 | 0.00 | 0.01 | 0.01 | 73 | 1014.9 |
| 20260508024541 | 57 | 315 | 0.0 | 0.0 | 0.00 | 0.01 | 0.01 | 69 | 1014.9 |
| 20260508023036 | 58 | 315 | 0.0 | 0.0 | 0.00 | 0.01 | 0.01 | 68 | 1014.7 |
| 20260508021554 | 59 | 315 | 0.0 | 0.0 | 0.00 | 0.01 | 0.01 | 66 | 1014.5 |
| 20260508020106 | 59 | 315 | 0.0 | 0.0 | 0.00 | 0.01 | 0.01 | 66 | 1014.3 |
| 20260508014512 | 60 | 315 | 0.0 | 0.0 | 0.00 | 0.01 | 0.01 | 64 | 1014.2 |
| 20260508013024 | 61 | 315 | 0.0 | 0.0 | 0.00 | 0.01 | 0.01 | 62 | 1014.1 |
| 20260508011539 | 61 | 315 | 0.0 | 0.0 | 0.00 | 0.01 | 0.01 | 62 | 1014.1 |
| 20260508010052 | 62 | 315 | 0.0 | 0.0 | 0.00 | 0.01 | 0.01 | 61 | 1014.0 |
| 20260508004502 | 63 | 315 | 0.0 | 0.0 | 0.00 | 0.01 | 0.01 | 60 | 1013.9 |
| 20260508003015 | 64 | 315 | 0.0 | 0.0 | 0.00 | 0.01 | 0.01 | 60 | 1014.0 |
| 20260508001531 | 65 | 315 | 0.0 | 0.0 | 0.00 | 0.01 | 0.01 | 59 | 1013.9 |
| 20260508000042 | 65 | 315 | 0.0 | 0.0 | 0.00 | 0.01 | 0.01 | 56 | 1013.7 |
| 20260507234555 | 66 | 315 | 0.0 | 1.0 | 0.00 | 0.01 | 0.01 | 53 | 1013.5 |
| 20260507233011 | 66 | 315 | 0.0 | 2.0 | 0.00 | 0.01 | 0.01 | 50 | 1013.8 |
| 20260507231527 | 66 | 315 | 0.0 | 2.0 | 0.00 | 0.01 | 0.01 | 47 | 1013.6 |
| 20260507230031 | 66 | 315 | 0.0 | 2.0 | 0.00 | 0.01 | 0.01 | 48 | 1013.7 |
| 20260507224545 | 66 | 304 | 0.0 | 3.0 | 0.00 | 0.01 | 0.01 | 45 | 1013.7 |
| 20260507223059 | 67 | 313 | 0.0 | 3.0 | 0.00 | 0.01 | 0.01 | 46 | 1013.6 |
| 20260507221513 | 67 | 309 | 0.0 | 2.0 | 0.00 | 0.01 | 0.01 | 46 | 1013.7 |
| 20260507220021 | 67 | 248 | 0.0 | 2.0 | 0.00 | 0.01 | 0.01 | 46 | 1013.8 |
| 20260507214541 | 66 | 306 | 0.0 | 2.0 | 0.00 | 0.02 | 0.01 | 44 | 1013.6 |
| 20260507213044 | 67 | 327 | 0.0 | 3.0 | 0.00 | 0.02 | 0.01 | 46 | 1013.6 |
| 20260507211559 | 66 | 295 | 0.0 | 2.0 | 0.00 | 0.02 | 0.01 | 47 | 1013.7 |
| 20260507210005 | 66 | 277 | 0.0 | 3.0 | 0.00 | 0.02 | 0.01 | 44 | 1013.8 |
| 20260507204518 | 66 | 282 | 1.0 | 3.0 | 0.00 | 0.06 | 0.01 | 46 | 1013.9 |
| 20260507203038 | 66 | 277 | 0.0 | 2.0 | 0.00 | 0.06 | 0.01 | 47 | 1014.1 |
| 20260507201554 | 66 | 277 | 0.0 | 2.0 | 0.00 | 0.06 | 0.01 | 47 | 1014.3 |
| 20260507200109 | 65 | 71 | 0.0 | 3.0 | 0.00 | 0.06 | 0.01 | 48 | 1014.6 |
| 20260507194507 | 65 | 313 | 0.0 | 3.0 | 0.00 | 0.06 | 0.01 | 47 | 1014.4 |
| 20260507193022 | 65 | 234 | 0.0 | 2.0 | 0.00 | 0.06 | 0.01 | 47 | 1014.5 |
| 20260507191532 | 65 | 323 | 0.0 | 5.0 | 0.00 | 0.06 | 0.01 | 47 | 1014.8 |
| 20260507190056 | 65 | 287 | 0.0 | 3.0 | 0.00 | 0.06 | 0.01 | 44 | 1014.8 |
| 20260507184602 | 64 | 320 | 0.0 | 2.0 | 0.00 | 0.06 | 0.01 | 56 | 1014.8 |
| 20260507183010 | 65 | 319 | 0.0 | 3.0 | 0.00 | 0.06 | 0.01 | 51 | 1015.0 |
| 20260507181524 | 64 | 286 | 0.0 | 2.0 | 0.00 | 0.06 | 0.01 | 54 | 1015.1 |
| 20260507180037 | 63 | 288 | 0.0 | 3.0 | 0.00 | 0.06 | 0.01 | 51 | 1015.2 |
| 20260507174546 | 63 | 261 | 0.0 | 2.0 | 0.00 | 0.07 | 0.01 | 57 | 1015.6 |
| 20260507173103 | 63 | 290 | 0.0 | 2.0 | 0.00 | 0.07 | 0.01 | 52 | 1015.7 |
| 20260507171509 | 62 | 289 | 0.0 | 2.0 | 0.00 | 0.07 | 0.01 | 53 | 1016.0 |
| 20260507170020 | 62 | 315 | 0.0 | 3.0 | 0.00 | 0.07 | 0.01 | 58 | 1016.0 |
| 20260507164541 | 61 | 273 | 0.0 | 3.0 | 0.00 | 0.13 | 0.01 | 61 | 1016.2 |
| 20260507163043 | 60 | 302 | 0.0 | 2.0 | 0.00 | 0.13 | 0.01 | 67 | 1016.2 |
| 20260507161558 | 59 | 294 | 0.0 | 2.0 | 0.00 | 0.13 | 0.01 | 75 | 1016.2 |
| 20260507160007 | 58 | 309 | 0.0 | 2.0 | 0.00 | 0.13 | 0.01 | 72 | 1016.2 |
| 20260507154520 | 57 | 247 | 0.0 | 2.0 | 0.00 | 0.19 | 0.01 | 75 | 1016.0 |
| 20260507153034 | 57 | 291 | 0.0 | 3.0 | 0.00 | 0.19 | 0.01 | 77 | 1016.1 |
| 20260507151545 | 55 | 258 | 0.0 | 2.0 | 0.00 | 0.19 | 0.01 | 79 | 1016.2 |
| 20260507150057 | 55 | 254 | 0.0 | 2.0 | 0.00 | 0.19 | 0.01 | 87 | 1016.4 |
| 20260507144519 | 54 | 272 | 0.0 | 2.0 | 0.00 | 0.30 | 0.01 | 89 | 1016.6 |
| 20260507143025 | 54 | 259 | 0.0 | 1.0 | 0.00 | 0.30 | 0.01 | 92 | 1016.3 |
| 20260507141530 | 53 | 259 | 0.0 | 2.0 | 0.00 | 0.30 | 0.01 | 94 | 1016.4 |
| 20260507140043 | 52 | 267 | 0.0 | 2.0 | 0.00 | 0.30 | 0.01 | 95 | 1016.3 |
| 20260507134557 | 52 | 245 | 0.0 | 2.0 | 0.00 | 0.33 | 0.01 | 95 | 1016.2 |
| 20260507133005 | 51 | 252 | 0.0 | 2.0 | 0.00 | 0.33 | 0.01 | 96 | 1016.1 |
| 20260507131517 | 51 | 259 | 0.0 | 2.0 | 0.00 | 0.33 | 0.01 | 96 | 1016.1 |
| 20260507130029 | 50 | 259 | 0.0 | 1.0 | 0.00 | 0.33 | 0.01 | 96 | 1015.9 |
| 20260507124541 | 50 | 259 | 0.0 | 2.0 | 0.00 | 0.33 | 0.01 | 95 | 1015.8 |
| 20260507123054 | 49 | 259 | 0.0 | 0.0 | 0.00 | 0.33 | 0.01 | 95 | 1015.6 |
| 20260507121504 | 49 | 259 | 0.0 | 0.0 | 0.00 | 0.33 | 0.01 | 95 | 1015.4 |
| 20260507120018 | 49 | 259 | 0.0 | 0.0 | 0.00 | 0.33 | 0.01 | 94 | 1014.9 |
| 20260507114537 | 49 | 259 | 0.0 | 0.0 | 0.00 | 0.34 | 0.01 | 94 | 1014.8 |
| 20260507113043 | 49 | 259 | 0.0 | 2.0 | 0.00 | 0.34 | 0.01 | 94 | 1014.5 |
| 20260507111601 | 49 | 259 | 0.0 | 2.0 | 0.00 | 0.34 | 0.01 | 94 | 1014.7 |
| 20260507110007 | 49 | 259 | 0.0 | 0.0 | 0.00 | 0.34 | 0.01 | 94 | 1014.5 |
| 20260507104522 | 50 | 259 | 0.0 | 0.0 | 0.00 | 0.52 | 0.01 | 94 | 1014.5 |
| 20260507103035 | 50 | 259 | 0.0 | 0.0 | 0.00 | 0.52 | 0.01 | 94 | 1014.6 |
| 20260507101549 | 50 | 259 | 0.0 | 0.0 | 0.00 | 0.52 | 0.01 | 94 | 1014.3 |
| 20260507100104 | 50 | 259 | 0.0 | 0.0 | 0.00 | 0.52 | 0.01 | 94 | 1014.5 |
| 20260507094511 | 50 | 259 | 0.0 | 2.0 | 0.00 | 0.63 | 0.01 | 94 | 1014.4 |
| 20260507093026 | 51 | 259 | 0.0 | 1.0 | 0.00 | 0.63 | 0.01 | 95 | 1014.2 |
| 20260507091546 | 51 | 259 | 0.0 | 0.0 | 0.00 | 0.63 | 0.01 | 95 | 1014.1 |
| 20260507090100 | 51 | 259 | 0.0 | 0.0 | 0.00 | 0.63 | 0.01 | 95 | 1014.0 |
| 20260507084504 | 51 | 259 | 0.0 | 0.0 | 0.00 | 1.25 | 0.01 | 95 | 1013.9 |
| 20260507083019 | 51 | 259 | 0.0 | 0.0 | 0.00 | 1.25 | 0.01 | 95 | 1013.6 |
| 20260507081530 | 52 | 259 | 0.0 | 0.0 | 0.00 | 1.25 | 0.01 | 95 | 1013.8 |
| 20260507080050 | 52 | 259 | 0.0 | 0.0 | 0.00 | 1.25 | 0.01 | 95 | 1014.0 |
| 20260507074558 | 52 | 259 | 0.0 | 0.0 | 0.00 | 1.36 | 0.01 | 95 | 1014.0 |
| 20260507073007 | 52 | 259 | 0.0 | 0.0 | 0.00 | 1.36 | 0.01 | 95 | 1014.1 |
| 20260507071519 | 52 | 259 | 0.0 | 0.0 | 0.00 | 1.36 | 0.01 | 95 | 1014.1 |
| 20260507070034 | 52 | 259 | 0.0 | 0.0 | 0.00 | 1.36 | 0.01 | 95 | 1014.0 |
| 20260507064546 | 52 | 259 | 0.0 | 0.0 | 0.00 | 1.56 | 0.01 | 95 | 1014.1 |
| 20260507063106 | 52 | 259 | 0.0 | 0.0 | 0.01 | 1.56 | 0.01 | 95 | 1014.0 |
| 20260507061508 | 52 | 259 | 0.0 | 0.0 | 0.01 | 1.56 | 0.01 | 95 | 1014.2 |
| 20260507060024 | 52 | 259 | 0.0 | 0.0 | 0.01 | 1.56 | 0.01 | 95 | 1014.2 |
| 20260507054542 | 52 | 259 | 0.0 | 0.0 | 0.01 | 1.56 | 0.01 | 95 | 1013.9 |
| 20260507053055 | 52 | 259 | 0.0 | 0.0 | 0.00 | 1.55 | 0.00 | 95 | 1013.8 |